Regional Weather Roundup
Issued by NWS

Home | Current Version | Previous Version | Graphics & Text | Print | Product List | Glossary On
Versions: 1 2 3 4 5 6 7 8 9 10 11 12 13 14 15 16 17 18 19 20 21 22 23 24 25 26 27 28 29 30 31 32 33 34 35 36 37 38 39 40 41 42 43 44 45 46 47 48 49 50
000
ASUS43 KDTX 301810
RWRMI
MICHIGAN HOURLY REGIONAL WEATHER ROUNDUP
NATIONAL WEATHER SERVICE DETROIT/PONTIAC MI
200 PM EDT WED JUL 30 2014

NOTE: "FAIR" INDICATES FEW OR NO CLOUDS BELOW 12,000 FEET WITH NO
SIGNIFICANT WEATHER AND/OR OBSTRUCTION TO VISIBILITY.

MIZ047>049-052>055-059>063-066>070-074>076-081>083-301900-
SOUTHEAST LOWER MICHIGAN

CITY           SKY/WX    TMP DP  RH WIND       PRES   REMARKS
ADRIAN         PTSUNNY   74  56  53 NW8       30.01F
6HR MIN TEMP:  59; 6HR MAX TEMP:  75;

ALMA           CLOUDY    69  52  55 N3        30.01S
ANN ARBOR      PTSUNNY   73  55  53 W9        30.00F
BAD AXE          N/A     69  53  56 CALM      30.00S
6HR MIN TEMP:  58; 6HR MAX TEMP:  69;

DETROIT CITY   PTSUNNY   74  54  49 NW7       29.99F
6HR MIN TEMP:  61; 6HR MAX TEMP:  76;

DETROIT        PTSUNNY   73  57  57 W7        30.00F
6HR MIN TEMP:  59; 6HR MAX TEMP:  75;

FLINT          PTSUNNY   68  57  68 W7        30.01F
6HR MIN TEMP:  58; 6HR MAX TEMP:  72; 6HR PCP:  0.02;

GROSSE ILE     PTSUNNY   72  63  73 S8        29.98F
HILLSDALE      PTSUNNY   73  58  59 W9        30.02S
HOWELL         PTSUNNY   70  56  62 NW3       30.00F
6HR MIN TEMP:  56; 6HR MAX TEMP:  70;


CITY           SKY/WX    TMP DP  RH WIND       PRES   REMARKS
JACKSON          N/A     73  57  57 VRB6      30.01F
6HR MIN TEMP:  56; 6HR MAX TEMP:  73;

LAMBERTVILLE   PTSUNNY   73  55  53 SW7       30.00F
LANSING        PTSUNNY   71  57  61 VRB5      30.01F
6HR MIN TEMP:  56; 6HR MAX TEMP:  72;

LAPEER         NOT AVBL
MASON          PTSUNNY   71  57  61 SW6       30.01S
MONROE           N/A     73  57  56 W6        29.98F
MT. CLEMENS    PTSUNNY   71  56  59 N8        29.99F
6HR MIN TEMP:  60; 6HR MAX TEMP:  72;

PONTIAC        PTSUNNY   70  55  59 NW9       30.00S
6HR MIN TEMP:  57; 6HR MAX TEMP:  70;

PORT HOPE        N/A     65  56  72 CALM      29.99F
6HR MIN TEMP:  62; 6HR MAX TEMP:  66;

PORT HURON     PTSUNNY   68  55  64 CALM      29.99F
TRI CITIES     PTSUNNY   72  52  49 W7        30.00F
6HR MIN TEMP:  58; 6HR MAX TEMP:  73; 6HR PCP: TRACE;

YPSILANTI        N/A     77  56  48 NW5       30.01S
6HR MIN TEMP:  62; 6HR MAX TEMP:  77;

$$
MIZ043>046-050>051-056>058-064>065-071>073-077>080-301900-
SOUTHWEST LOWER MICHIGAN

CITY           SKY/WX    TMP DP  RH WIND       PRES   REMARKS
BATTLE CREEK   PTSUNNY   73  58  59 W10       30.02F
6HR MIN TEMP:  59; 6HR MAX TEMP:  74;

BENTON HARBOR    N/A     68  59  73 W8G16     30.04F
6HR MIN TEMP:  58; 6HR MAX TEMP:  69;

BIG RAPIDS     PTSUNNY   73  47  39 NW7       30.00F
6HR MIN TEMP:  58; 6HR MAX TEMP:  73;

COLDWATER      PTSUNNY   76  57  51 W9        30.01F
6HR MIN TEMP:  59; 6HR MAX TEMP:  77;

HOLLAND          N/A     69  60  73 W8        30.04S
6HR MIN TEMP:  61; 6HR MAX TEMP:  71;

GRAND RAPIDS     N/A     75  56  51 W7        30.01F
6HR MIN TEMP:  59; 6HR MAX TEMP:  75;

KALAMAZOO        N/A     75  57  53 NW9       30.01F
6HR MIN TEMP:  60; 6HR MAX TEMP:  75;

MARSHALL       CLOUDY    73  59  61 NW8       30.01F
MUSKEGON         N/A     69  57  65 W10       30.03S
6HR MIN TEMP:  55; 6HR MAX TEMP:  71;

$$
MIZ016>042-301900-
NORTHERN LOWER MICHIGAN

CITY           SKY/WX    TMP DP  RH WIND       PRES   REMARKS
ALPENA           N/A     67  50  54 VRB5      29.98F
6HR MIN TEMP:  53; 6HR MAX TEMP:  70;

BEAVER ISLAND    N/A     67  51  56 W6        30.00F
6HR MIN TEMP:  54; 6HR MAX TEMP:  67;

BELLAIRE         N/A     69  52  55 W7        30.00F
6HR MIN TEMP:  52; 6HR MAX TEMP:  69;

CADILLAC       CLOUDY    71  52  50 W7        30.01S
CHARLEVOIX       N/A     64  54  68 NW7       30.04F
6HR MIN TEMP:  59; 6HR MAX TEMP:  65;

FRANKFORT        N/A     66  54  66 W10       30.03S
GAYLORD        PTSUNNY   65  48  54 W6        30.00F
6HR MIN TEMP:  53; 6HR MAX TEMP:  67;

GRAYLING         N/A     69  48  46 W8        30.00F
6HR MIN TEMP:  51; 6HR MAX TEMP:  72;

HARBOR SPRINGS CLOUDY    64  56  75 SW12      30.00F
HOUGHTON LAKE  CLOUDY    69  50  50 VRB5      30.00F
6HR MIN TEMP:  53; 6HR MAX TEMP:  69;

MANISTEE         N/A     64  54  68 NW14      30.04S
OSCODA         CLOUDY    63  55  76 SE7       29.99S
PELLSTON         N/A     68  46  45 VRB6      29.99F
6HR MIN TEMP:  54; 6HR MAX TEMP:  70;

TRAVERSE CITY  PTSUNNY   66  56  70 NE9       30.00S
6HR MIN TEMP:  56; 6HR MAX TEMP:  69;

$$
MIZ007>008-015-301900-
EASTERN UPPER MICHIGAN

CITY           SKY/WX    TMP DP  RH WIND       PRES   REMARKS
KINROSS          N/A     64  50  59 NW8       29.98F
6HR MIN TEMP:  50; 6HR MAX TEMP:  64;

MACKINAC ISLAN   N/A     63  52  67 SW6       29.99F
6HR MIN TEMP:  50; 6HR MAX TEMP:  63;

NEWBERRY         N/A     65  51  59 NW9       29.99S
S. S. MARIE      N/A     63  49  60 W9        29.98F
6HR MIN TEMP:  50; 6HR MAX TEMP:  65;

$$
MIZ004>006-011>014-085-301900-
CENTRAL UPPER MICHIGAN

CITY           SKY/WX    TMP DP  RH WIND       PRES   REMARKS
MANISTIQUE       N/A     65  55  69 S5        29.99F
6HR MIN TEMP:  51; 6HR MAX TEMP:  70;

ESCANABA       PTSUNNY   68  52  56 SE10      30.00F
6HR MIN TEMP:  50; 6HR MAX TEMP:  70;

MENOMINEE      CLOUDY    66  52  59 S7        30.01F
6HR MIN TEMP:  54; 6HR MAX TEMP:  70;

SAWYER-GWINN   MOSUNNY   66  48  52 W10       30.01F
$$
MIZ001>003-009>011-084-301900-
WESTERN UPPER MICHIGAN

CITY           SKY/WX    TMP DP  RH WIND       PRES   REMARKS
IRON MOUNTAIN    N/A     72  44  36 W8        30.00F
6HR MIN TEMP:  51; 6HR MAX TEMP:  72;

HOUGHTON         N/A     64  52  64 W14       29.97F
6HR MIN TEMP:  52; 6HR MAX TEMP:  64;

COPPER HARBOR    N/A     64  50  60 VRB5      29.95F
6HR MIN TEMP:  54; 6HR MAX TEMP:  66;

$$

ABBREVIATIONS USED IN REMARKS
   TC - TEMPERATURE IN CELSIUS
  WCI - WIND CHILL INDEX
   HX - HEAT INDEX
  VSB - VISIBILITY



USA.gov is the U.S. government's official web portal to all federal, state and local government web resources and services.